Weather in Novyy Belyy Yar

Russia / Ulyanovsk Oblast     53°58′28″N   48°58′12″E
В апреле 2022 года жителям России запретили посещать сайт meteo.paraplan.net по решению Генеральной прокуратуры. Аудитория сайта уменьшилась в 10 раз. Владельцы сайта не видят смысла в поддержке погодного сервера в таких условиях. Сайт будет закрыт в октябре.
temp.,
°C
wind,
m/s
gust,
m/s
humid.,
%
clouds,
%
prec.,
mm/h
press.,
hPa
HPBL,
m
4 october, tue
tue401:00+14sse81444100 0.0 1020506
04:00+13sse81442100 0.0 1021537
07:00+13sse71344100 0.0 1022479
10:00+12sse61146100 0.1 1023560
13:00+13sse71345100 0.0 1024529
16:00+15sse7123977 0.0 1024813
19:00+14sse81438100 0.0 1024477
22:00+13sse81338100 0.0 1024713
5 october, wed
wed501:00+10s81365100 0.3 1025911
04:00+8s91681100 1.3 1024794
07:00+10sse61263100 0.8 1023570
10:00+11s8136095 0.8 1022669
13:00+11s81263100 0.0 1022603
16:00+12sse71257100 0.1 1021532
19:00+13s81452100 0.0 1021633
22:00+10sse81394100 2.9 1019530
6 october, thu
thu601:00+10s71194100 3.7 1018466
04:00+11ssw588979 4.9 1017428
07:00+9wsw47865 0.0 1016238
10:00+10w796922 0.0 1016899
13:00+10wsw796168 0.0 10171410
16:00+9w796693 0.1 10171060
19:00+8wnw367175 0.1 1018311
22:00+7wnw588160 0.1 1019419
7 october, fri
fri701:00+7w4679100 0.0 1019403
04:00+6wnw478559 0.1 1019300
07:00+7w368261 0.0 1019324
10:00+9wsw46645 0.0 1019494
13:00+10sw5868100 0.1 1018611
16:00+13wsw5973100 0.3 1017832
19:00+11wnw6118412 0.2 1019596
22:00+11wnw71378100 0.3 1020703
8 october, sat
sat801:00+11wnw71269100 0.0 1021734
04:00+9wnw511710 0.0 1022433
07:00+8wnw511810 0.0 1024351
10:00+11wnw69730 0.0 1026523
13:00+13wnw57600 0.0 1026611
16:00+14wnw45550 0.0 1025668
19:00+11wsw33660 0.0 102619
22:00+10wsw33700 0.0 102635